Weather History for KBDL - April, 2013

Change the Weather History Date:

Sunday, April 28, 2013

  Actual Average Record
Temperature  
Mean Temperature 56 °F 54 °F  
Max Temperature 71 °F 66 °F 94 °F (1990)
Min Temperature 40 °F 43 °F 29 °F (1972)
Degree Days  
Heating Degree Days 9 11  
Month to date heating degree days 460 452  
Since 1 July heating degree days 5472 5733  
Cooling Degree Days 0 0  
Month to date cooling degree days 1 0  
Year to date cooling degree days 1 0  
Growing Degree Days 5 (Base 50)    
Moisture  
Dew Point 35 °F    
Average Humidity 56    
Maximum Humidity 86    
Minimum Humidity 26    
Precipitation  
Precipitation 0.00 in 0.13 in 1.85 in (2008)
Month to date precipitation 1.67 3.47  
Year to date precipitation 9.78 13.21  
Snow  
Snow 0.00 in 0.00 in 0.40 in (1987)
Month to date snowfall 0.0 1.4  
Since 1 July snowfall 56.9 40.5  
Snow Depth 0.00 in    
Sea Level Pressure  
Sea Level Pressure 30.27 in    
Wind  
Wind Speed 7 mph (South)    
Max Wind Speed 18 mph    
Max Gust Speed 23 mph    
Visibility 10 miles    
Events      
T = Trace of Precipitation, MM = Missing Value Source: NWS Daily Summary

Daily Weather History Graph

Daily Weather History Graph

Search for Another Location

Airport or City:

Trip Planner

Search our weather history database for the weather conditions in past years. The results will help you decide how hot, cold, wet, or windy it might be!

Date:

Astronomy

Apr. 28, 2013 Rise Set
Actual Time 5:50 AM EDT 7:46 PM EDT
Civil Twilight 5:20 AM EDT 8:16 PM EDT
Nautical Twilight 4:43 AM EDT 8:53 PM EDT
Astronomical Twilight 4:04 AM EDT 9:33 PM EDT
Moon 11:15 PM EDT (4/28) 8:02 AM EDT (4/28)
Length of Visible Light 14h 56m
Length of Day
13h 55m
Waning Gibbous, 89% of the Moon is Illuminated
Apr 28
Waning Gibbous
May 2
Last Quarter
May 9
New
May 18
First Quarter
May 25
Full

Hourly Weather History & Observations

Time (EDT) Temp. Windchill Dew Point Humidity Pressure Visibility Wind Dir Wind Speed Gust Speed Precip Events Conditions
12:51 AM 50.0 °F - 41.0 °F 71% 30.31 in 10.0 mi South 8.1 mph - N/A   Mostly Cloudy
1:51 AM 48.0 °F - 39.9 °F 74% 30.30 in 10.0 mi SE 4.6 mph - N/A   Partly Cloudy
2:51 AM 46.0 °F - 37.9 °F 73% 30.30 in 10.0 mi Calm Calm - N/A   Clear
3:51 AM 45.0 °F - 37.9 °F 76% 30.30 in 10.0 mi Calm Calm - N/A   Scattered Clouds
4:51 AM 43.0 °F 41.3 °F 37.0 °F 80% 30.29 in 10.0 mi WSW 3.5 mph - N/A   Clear
5:51 AM 41.0 °F - 37.0 °F 86% 30.29 in 7.0 mi Calm Calm - N/A   Partly Cloudy
6:51 AM 45.0 °F - 39.9 °F 82% 30.30 in 7.0 mi Calm Calm - N/A   Partly Cloudy
7:51 AM 48.0 °F - 39.9 °F 74% 30.33 in 10.0 mi Calm Calm - N/A   Partly Cloudy
8:51 AM 53.1 °F - 41.0 °F 64% 30.32 in 10.0 mi North 3.5 mph - N/A   Clear
9:51 AM 57.0 °F - 39.0 °F 51% 30.32 in 10.0 mi Calm Calm - N/A   Partly Cloudy
10:51 AM 61.0 °F - 36.0 °F 39% 30.31 in 10.0 mi Calm Calm - N/A   Clear
11:51 AM 66.0 °F - 32.0 °F 28% 30.29 in 10.0 mi South 10.4 mph - N/A   Partly Cloudy
12:51 PM 69.1 °F - 34.0 °F 27% 30.26 in 10.0 mi South 12.7 mph 16.1 mph N/A   Scattered Clouds
1:51 PM 70.0 °F - 33.1 °F 26% 30.25 in 10.0 mi SSE 13.8 mph 18.4 mph N/A   Scattered Clouds
2:51 PM 70.0 °F - 36.0 °F 29% 30.23 in 10.0 mi South 13.8 mph 19.6 mph N/A   Scattered Clouds
3:51 PM 69.1 °F - 34.0 °F 27% 30.21 in 10.0 mi South 15.0 mph - N/A   Mostly Cloudy
4:51 PM 68.0 °F - 32.0 °F 26% 30.21 in 10.0 mi SSW 15.0 mph - N/A   Mostly Cloudy
5:51 PM 64.0 °F - 30.9 °F 29% 30.22 in 10.0 mi South 16.1 mph - N/A   Overcast
6:51 PM 62.1 °F - 30.9 °F 31% 30.21 in 10.0 mi South 12.7 mph - N/A   Overcast
7:51 PM 59.0 °F - 28.9 °F 32% 30.21 in 10.0 mi South 11.5 mph - N/A   Overcast
8:51 PM 57.0 °F - 28.0 °F 33% 30.23 in 10.0 mi South 10.4 mph - N/A   Overcast
9:51 PM 55.0 °F - 28.0 °F 35% 30.24 in 10.0 mi South 9.2 mph - N/A   Overcast
10:51 PM 53.1 °F - 28.9 °F 40% 30.24 in 10.0 mi South 9.2 mph - N/A   Overcast
11:51 PM 52.0 °F - 30.9 °F 45% 30.25 in 10.0 mi South 10.4 mph - N/A   Overcast